Location: *
(39.6167°S, 171.5333°W)
Time: 05:09:17
(UTC+00:00)

Cosmos 1943 - Pass Details

Date: 13 May 2021
Orbit: 833 x 850 km, 71.0° (Epoch: 16 June)

Event Time Altitude Azimuth Distance (km) Brightness Sun altitude
Rises 17:19:25 0° 199° (SSW) 3,440 6.0 -12.3°
Reaches altitude 10° 17:21:58 10° 194° (SSW) 2,495 5.4 -11.8°
Maximum altitude 17:27:34 53° 117° (ESE) 1,039 4.0 -10.8°
Drops below altitude 10° 17:33:04 10° 40° (NE) 2,456 6.6 -9.8°
Sets 17:35:33 0° 35° (NE) 3,380 7.2 -9.3°
